Year,Month,Day,Hour,Minute,Value (Times are PST for temperature in C)
2021,04,18,00,00,12.50
2021,04,18,00,01,12.50
2021,04,18,00,02,12.40
2021,04,18,00,03,12.40
2021,04,18,00,04,12.30
2021,04,18,00,05,12.30
2021,04,18,00,06,12.30
2021,04,18,00,07,12.20
2021,04,18,00,08,12.20
2021,04,18,00,09,12.20
2021,04,18,00,10,12.20
2021,04,18,00,11,12.10
2021,04,18,00,12,12.10
2021,04,18,00,13,12.10
2021,04,18,00,14,12.00
2021,04,18,00,15,11.90
2021,04,18,00,16,11.90
2021,04,18,00,17,11.80
2021,04,18,00,18,11.80
2021,04,18,00,19,11.80
2021,04,18,00,20,11.90
2021,04,18,00,21,11.90
2021,04,18,00,22,11.90
2021,04,18,00,23,11.80
2021,04,18,00,24,11.80
2021,04,18,00,25,11.80
2021,04,18,00,26,11.80
2021,04,18,00,27,11.80
2021,04,18,00,28,11.80
2021,04,18,00,29,11.80
2021,04,18,00,30,11.80
2021,04,18,00,31,11.80
2021,04,18,00,32,11.70
2021,04,18,00,33,11.70
2021,04,18,00,34,11.60
2021,04,18,00,35,11.60
2021,04,18,00,36,11.60
2021,04,18,00,37,11.60
2021,04,18,00,38,11.60
2021,04,18,00,39,11.50
2021,04,18,00,40,11.50
2021,04,18,00,41,11.50
2021,04,18,00,42,11.50
2021,04,18,00,43,11.50
2021,04,18,00,44,11.50
2021,04,18,00,45,11.50
2021,04,18,00,46,11.50
2021,04,18,00,47,11.50
2021,04,18,00,48,11.50
2021,04,18,00,49,11.40
2021,04,18,00,50,11.40
2021,04,18,00,51,11.40
2021,04,18,00,52,11.40
2021,04,18,00,53,11.40
2021,04,18,00,54,11.40
2021,04,18,00,55,11.40
2021,04,18,00,56,11.40
2021,04,18,00,57,11.30
2021,04,18,00,58,11.30
2021,04,18,00,59,11.30
2021,04,18,01,00,11.30
2021,04,18,01,01,11.30
2021,04,18,01,02,11.30
2021,04,18,01,03,11.30
2021,04,18,01,04,11.20
2021,04,18,01,05,11.20
2021,04,18,01,06,11.20
2021,04,18,01,07,11.20
2021,04,18,01,08,11.20
2021,04,18,01,09,11.20
2021,04,18,01,10,11.20
2021,04,18,01,11,11.20
2021,04,18,01,12,11.20
2021,04,18,01,13,11.20
2021,04,18,01,14,11.30
2021,04,18,01,15,11.30
2021,04,18,01,16,11.40
2021,04,18,01,17,11.50
2021,04,18,01,18,11.50
2021,04,18,01,19,11.60
2021,04,18,01,20,11.70
2021,04,18,01,21,11.70
2021,04,18,01,22,11.80
2021,04,18,01,23,11.80
2021,04,18,01,24,11.90
2021,04,18,01,25,11.90
2021,04,18,01,26,11.90
2021,04,18,01,27,11.90
2021,04,18,01,28,11.90
2021,04,18,01,29,11.90
2021,04,18,01,30,11.90
2021,04,18,01,31,11.80
2021,04,18,01,32,11.80
2021,04,18,01,33,11.80
2021,04,18,01,34,11.80
2021,04,18,01,35,11.80
2021,04,18,01,36,11.80
2021,04,18,01,37,11.70
2021,04,18,01,38,11.70
2021,04,18,01,39,11.70
2021,04,18,01,40,11.70
2021,04,18,01,41,11.70
2021,04,18,01,42,11.70
2021,04,18,01,43,11.70
2021,04,18,01,44,11.70
2021,04,18,01,45,11.70
2021,04,18,01,46,11.70
2021,04,18,01,47,11.70
2021,04,18,01,48,11.70
2021,04,18,01,49,11.70
2021,04,18,01,50,11.70
2021,04,18,01,51,11.70
2021,04,18,01,52,11.70
2021,04,18,01,53,11.70
2021,04,18,01,54,11.70
2021,04,18,01,55,11.70
2021,04,18,01,56,11.70
2021,04,18,01,57,11.70
2021,04,18,01,58,11.70
2021,04,18,01,59,11.70
2021,04,18,02,00,11.70
2021,04,18,02,01,11.70
2021,04,18,02,02,11.60
2021,04,18,02,03,11.60
2021,04,18,02,04,11.60
2021,04,18,02,05,11.50
2021,04,18,02,06,11.50
2021,04,18,02,07,11.40
2021,04,18,02,08,11.40
2021,04,18,02,09,11.30
2021,04,18,02,10,11.30
2021,04,18,02,11,11.30
2021,04,18,02,12,11.30
2021,04,18,02,13,11.30
2021,04,18,02,14,11.30
2021,04,18,02,15,11.30
2021,04,18,02,16,11.30
2021,04,18,02,17,11.30
2021,04,18,02,18,11.30
2021,04,18,02,19,11.30
2021,04,18,02,20,11.30
2021,04,18,02,21,11.30
2021,04,18,02,22,11.30
2021,04,18,02,23,11.30
2021,04,18,02,24,11.30
2021,04,18,02,25,11.30
2021,04,18,02,26,11.30
2021,04,18,02,27,11.30
2021,04,18,02,28,11.30
2021,04,18,02,29,11.30
2021,04,18,02,30,11.30
2021,04,18,02,31,11.20
2021,04,18,02,32,11.20
2021,04,18,02,33,11.20
2021,04,18,02,34,11.20
2021,04,18,02,35,11.10
2021,04,18,02,36,11.10
2021,04,18,02,37,11.10
2021,04,18,02,38,11.10
2021,04,18,02,39,11.10
2021,04,18,02,40,11.00
2021,04,18,02,41,11.00
2021,04,18,02,42,11.00
2021,04,18,02,43,11.00
2021,04,18,02,44,10.90
2021,04,18,02,45,10.90
2021,04,18,02,46,10.90
2021,04,18,02,47,10.90
2021,04,18,02,48,10.90
2021,04,18,02,49,10.90
2021,04,18,02,50,10.80
2021,04,18,02,51,10.80
2021,04,18,02,52,10.80
2021,04,18,02,53,10.80
2021,04,18,02,54,10.80
2021,04,18,02,55,10.80
2021,04,18,02,56,10.80
2021,04,18,02,57,10.80
2021,04,18,02,58,10.80
2021,04,18,02,59,10.80
2021,04,18,03,00,10.80
2021,04,18,03,01,10.80
2021,04,18,03,02,10.80
2021,04,18,03,03,10.70
2021,04,18,03,04,10.70
2021,04,18,03,05,10.70
2021,04,18,03,06,10.70
2021,04,18,03,07,10.70
2021,04,18,03,08,10.70
2021,04,18,03,09,10.70
2021,04,18,03,10,10.70
2021,04,18,03,11,10.70
2021,04,18,03,12,10.70
2021,04,18,03,13,10.70
2021,04,18,03,14,10.70
2021,04,18,03,15,10.70
2021,04,18,03,16,10.70
2021,04,18,03,17,10.70
2021,04,18,03,18,10.70
2021,04,18,03,19,10.70
2021,04,18,03,20,10.70
2021,04,18,03,21,10.70
2021,04,18,03,22,10.70
2021,04,18,03,23,10.70
2021,04,18,03,24,10.70
2021,04,18,03,25,10.70
2021,04,18,03,26,10.70
2021,04,18,03,27,10.70
2021,04,18,03,28,10.80
2021,04,18,03,29,10.80
2021,04,18,03,30,10.80
2021,04,18,03,31,10.90
2021,04,18,03,32,10.90
2021,04,18,03,33,11.00
2021,04,18,03,34,11.10
2021,04,18,03,35,11.10
2021,04,18,03,36,11.20
2021,04,18,03,37,11.20
2021,04,18,03,38,11.30
2021,04,18,03,39,11.30
2021,04,18,03,40,11.30
2021,04,18,03,41,11.40
2021,04,18,03,42,11.40
2021,04,18,03,43,11.40
2021,04,18,03,44,11.30
2021,04,18,03,45,11.30
2021,04,18,03,46,11.20
2021,04,18,03,47,11.20
2021,04,18,03,48,11.10
2021,04,18,03,49,11.10
2021,04,18,03,50,11.10
2021,04,18,03,51,11.10
2021,04,18,03,52,11.10
2021,04,18,03,53,11.00
2021,04,18,03,54,11.00
2021,04,18,03,55,11.00
2021,04,18,03,56,10.90
2021,04,18,03,57,10.80
2021,04,18,03,58,10.80
2021,04,18,03,59,10.80
2021,04,18,04,00,10.70
2021,04,18,04,01,10.70
2021,04,18,04,02,10.70
2021,04,18,04,03,10.70
2021,04,18,04,04,10.70
2021,04,18,04,05,10.60
2021,04,18,04,06,10.60
2021,04,18,04,07,10.60
2021,04,18,04,08,10.60
2021,04,18,04,09,10.60
2021,04,18,04,10,10.60
2021,04,18,04,11,10.60
2021,04,18,04,12,10.50
2021,04,18,04,13,10.50
2021,04,18,04,14,10.50
2021,04,18,04,15,10.50
2021,04,18,04,16,10.50
2021,04,18,04,17,10.50
2021,04,18,04,18,10.50
2021,04,18,04,19,10.50
2021,04,18,04,20,10.50
2021,04,18,04,21,10.40
2021,04,18,04,22,10.40
2021,04,18,04,23,10.40
2021,04,18,04,24,10.40
2021,04,18,04,25,10.40
2021,04,18,04,26,10.40
2021,04,18,04,27,10.40
2021,04,18,04,28,10.40
2021,04,18,04,29,10.40
2021,04,18,04,30,10.40
2021,04,18,04,31,10.40
2021,04,18,04,32,10.40
2021,04,18,04,33,10.30
2021,04,18,04,34,10.30
2021,04,18,04,35,10.30
2021,04,18,04,36,10.30
2021,04,18,04,37,10.30
2021,04,18,04,38,10.20
2021,04,18,04,39,10.20
2021,04,18,04,40,10.20
2021,04,18,04,41,10.10
2021,04,18,04,42,10.10
2021,04,18,04,43,10.10
2021,04,18,04,44,10.10
2021,04,18,04,45,10.00
2021,04,18,04,46,10.00
2021,04,18,04,47,10.00
2021,04,18,04,48,9.90
2021,04,18,04,49,9.90
2021,04,18,04,50,9.90
2021,04,18,04,51,9.90
2021,04,18,04,52,9.90
2021,04,18,04,53,9.90
2021,04,18,04,54,9.90
2021,04,18,04,55,9.90
2021,04,18,04,56,9.90
2021,04,18,04,57,9.90
2021,04,18,04,58,9.80
2021,04,18,04,59,9.80
2021,04,18,05,00,9.80
2021,04,18,05,01,9.80
2021,04,18,05,02,9.80
2021,04,18,05,03,9.80
2021,04,18,05,04,9.80
2021,04,18,05,05,9.80
2021,04,18,05,06,9.80
2021,04,18,05,07,9.70
2021,04,18,05,08,9.70
2021,04,18,05,09,9.60
2021,04,18,05,10,9.60
2021,04,18,05,11,9.50
2021,04,18,05,12,9.50
2021,04,18,05,13,9.50
2021,04,18,05,14,9.50
2021,04,18,05,15,9.40
2021,04,18,05,16,9.40
2021,04,18,05,17,9.40
2021,04,18,05,18,9.40
2021,04,18,05,19,9.40
2021,04,18,05,20,9.40
2021,04,18,05,21,9.40
2021,04,18,05,22,9.40
2021,04,18,05,23,9.30
2021,04,18,05,24,9.30
2021,04,18,05,25,9.30
2021,04,18,05,26,9.30
2021,04,18,05,27,9.30
2021,04,18,05,28,9.30
2021,04,18,05,29,9.20
2021,04,18,05,30,9.20
2021,04,18,05,31,9.10
2021,04,18,05,32,9.10
2021,04,18,05,33,9.10
2021,04,18,05,34,9.00
2021,04,18,05,35,9.00
2021,04,18,05,36,9.00
2021,04,18,05,37,8.90
2021,04,18,05,38,8.90
2021,04,18,05,39,8.90
2021,04,18,05,40,8.90
2021,04,18,05,41,8.90
2021,04,18,05,42,8.80
2021,04,18,05,43,8.80
2021,04,18,05,44,8.80
2021,04,18,05,45,8.80
2021,04,18,05,46,8.70
2021,04,18,05,47,8.70
2021,04,18,05,48,8.70
2021,04,18,05,49,8.70
2021,04,18,05,50,8.60
2021,04,18,05,51,8.60
2021,04,18,05,52,8.60
2021,04,18,05,53,8.50
2021,04,18,05,54,8.50
2021,04,18,05,55,8.50
2021,04,18,05,56,8.50
2021,04,18,05,57,8.40
2021,04,18,05,58,8.40
2021,04,18,05,59,8.40
2021,04,18,06,00,8.40
2021,04,18,06,01,8.40
2021,04,18,06,02,8.40
2021,04,18,06,03,8.40
2021,04,18,06,04,8.40
2021,04,18,06,05,8.30
2021,04,18,06,06,8.30
2021,04,18,06,07,8.30
2021,04,18,06,08,8.30
2021,04,18,06,09,8.30
2021,04,18,06,10,8.30
2021,04,18,06,11,8.30
2021,04,18,06,12,8.30
2021,04,18,06,13,8.30
2021,04,18,06,14,8.30
2021,04,18,06,15,8.30
2021,04,18,06,16,8.30
2021,04,18,06,17,8.30
2021,04,18,06,18,8.40
2021,04,18,06,19,8.40
2021,04,18,06,20,8.40
2021,04,18,06,21,8.40
2021,04,18,06,22,8.40
2021,04,18,06,23,8.40
2021,04,18,06,24,8.40
2021,04,18,06,25,8.40
2021,04,18,06,26,8.40
2021,04,18,06,27,8.50
2021,04,18,06,28,8.50
2021,04,18,06,29,8.40
2021,04,18,06,30,8.50
2021,04,18,06,31,8.50
2021,04,18,06,32,8.50
2021,04,18,06,33,8.50
2021,04,18,06,34,8.50
2021,04,18,06,35,8.50
2021,04,18,06,36,8.50
2021,04,18,06,37,8.50
2021,04,18,06,38,8.50
2021,04,18,06,39,8.50
2021,04,18,06,40,8.40
2021,04,18,06,41,8.40
2021,04,18,06,42,8.40
2021,04,18,06,43,8.40
2021,04,18,06,44,8.50
2021,04,18,06,45,8.50
2021,04,18,06,46,8.50
2021,04,18,06,47,8.60
2021,04,18,06,48,8.60
2021,04,18,06,49,8.60
2021,04,18,06,50,8.70
2021,04,18,06,51,8.70
2021,04,18,06,52,8.80
2021,04,18,06,53,8.80
2021,04,18,06,54,8.80
2021,04,18,06,55,8.90
2021,04,18,06,56,8.90
2021,04,18,06,57,8.90
2021,04,18,06,58,8.90
2021,04,18,06,59,8.90
2021,04,18,07,00,8.90
2021,04,18,07,01,8.90
2021,04,18,07,02,8.90
2021,04,18,07,03,8.90
2021,04,18,07,04,8.80
2021,04,18,07,05,8.80
2021,04,18,07,06,8.80
2021,04,18,07,07,8.80
2021,04,18,07,08,8.80
2021,04,18,07,09,8.80
2021,04,18,07,10,8.80
2021,04,18,07,11,8.70
2021,04,18,07,12,8.70
2021,04,18,07,13,8.70
2021,04,18,07,14,8.70
2021,04,18,07,15,8.80
2021,04,18,07,16,8.80
2021,04,18,07,17,8.80
2021,04,18,07,18,8.80
2021,04,18,07,19,8.90
2021,04,18,07,20,8.90
2021,04,18,07,21,8.90
2021,04,18,07,22,8.90
2021,04,18,07,23,9.00
2021,04,18,07,24,9.00
2021,04,18,07,25,9.10
2021,04,18,07,26,9.20
2021,04,18,07,27,9.20
2021,04,18,07,28,9.20
2021,04,18,07,29,9.30
2021,04,18,07,30,9.40
2021,04,18,07,31,9.40
2021,04,18,07,32,9.50
2021,04,18,07,33,9.60
2021,04,18,07,34,9.60
2021,04,18,07,35,9.70
2021,04,18,07,36,9.80
2021,04,18,07,37,9.90
2021,04,18,07,38,10.00
2021,04,18,07,39,10.00
2021,04,18,07,40,10.10
2021,04,18,07,41,10.20
2021,04,18,07,42,10.30
2021,04,18,07,43,10.40
2021,04,18,07,44,10.40
2021,04,18,07,45,10.50
2021,04,18,07,46,10.60
2021,04,18,07,47,10.70
2021,04,18,07,48,10.70
2021,04,18,07,49,10.80
2021,04,18,07,50,10.90
2021,04,18,07,51,11.00
2021,04,18,07,52,11.00
2021,04,18,07,53,11.10
2021,04,18,07,54,11.20
2021,04,18,07,55,11.30
2021,04,18,07,56,11.50
2021,04,18,07,57,11.60
2021,04,18,07,58,11.70
2021,04,18,07,59,11.80
2021,04,18,08,00,12.00
2021,04,18,08,01,12.10
2021,04,18,08,02,12.20
2021,04,18,08,03,12.30
2021,04,18,08,04,12.40
2021,04,18,08,05,12.50
2021,04,18,08,06,12.50
2021,04,18,08,07,12.60
2021,04,18,08,08,12.60
2021,04,18,08,09,12.70
2021,04,18,08,10,12.70
2021,04,18,08,11,12.70
2021,04,18,08,12,12.70
2021,04,18,08,13,12.70
2021,04,18,08,14,12.70
2021,04,18,08,15,12.80
2021,04,18,08,16,12.80
2021,04,18,08,17,12.80
2021,04,18,08,18,12.80
2021,04,18,08,19,12.90
2021,04,18,08,20,13.00
2021,04,18,08,21,13.10
2021,04,18,08,22,13.20
2021,04,18,08,23,13.30
2021,04,18,08,24,13.40
2021,04,18,08,25,13.50
2021,04,18,08,26,13.50
2021,04,18,08,27,13.60
2021,04,18,08,28,13.60
2021,04,18,08,29,13.70
2021,04,18,08,30,13.70
2021,04,18,08,31,13.70
2021,04,18,08,32,13.70
2021,04,18,08,33,13.70
2021,04,18,08,34,13.80
2021,04,18,08,35,13.80
2021,04,18,08,36,13.90
2021,04,18,08,37,14.10
2021,04,18,08,38,14.20
2021,04,18,08,39,14.40
2021,04,18,08,40,14.50
2021,04,18,08,41,14.70
2021,04,18,08,42,14.90
2021,04,18,08,43,15.00
2021,04,18,08,44,15.10
2021,04,18,08,45,15.10
2021,04,18,08,46,15.20
2021,04,18,08,47,15.20
2021,04,18,08,48,15.30
2021,04,18,08,49,15.40
2021,04,18,08,50,15.40
2021,04,18,08,51,15.50
2021,04,18,08,52,15.50
2021,04,18,08,53,15.60
2021,04,18,08,54,15.60
2021,04,18,08,55,15.70
2021,04,18,08,56,15.80
2021,04,18,08,57,15.80
2021,04,18,08,58,15.80
2021,04,18,08,59,15.80
2021,04,18,09,00,15.80
2021,04,18,09,01,15.90
2021,04,18,09,02,15.90
2021,04,18,09,03,15.90
2021,04,18,09,04,15.90
2021,04,18,09,05,15.90
2021,04,18,09,06,15.90
2021,04,18,09,07,15.90
2021,04,18,09,08,15.90
2021,04,18,09,09,15.90
2021,04,18,09,10,15.90
2021,04,18,09,11,15.90
2021,04,18,09,12,15.90
2021,04,18,09,13,16.00
2021,04,18,09,14,16.00
2021,04,18,09,15,16.10
2021,04,18,09,16,16.10
2021,04,18,09,17,16.10
2021,04,18,09,18,16.20
2021,04,18,09,19,16.20
2021,04,18,09,20,16.30
2021,04,18,09,21,16.40
2021,04,18,09,22,16.40
2021,04,18,09,23,16.50
2021,04,18,09,24,16.50
2021,04,18,09,25,16.60
2021,04,18,09,26,16.70
2021,04,18,09,27,16.80
2021,04,18,09,28,16.80
2021,04,18,09,29,16.80
2021,04,18,09,30,16.80
2021,04,18,09,31,16.80
2021,04,18,09,32,16.80
2021,04,18,09,33,16.80
2021,04,18,09,34,16.90
2021,04,18,09,35,17.00
2021,04,18,09,36,17.00
2021,04,18,09,37,17.20
2021,04,18,09,38,17.30
2021,04,18,09,39,17.40
2021,04,18,09,40,17.40
2021,04,18,09,41,17.50
2021,04,18,09,42,17.50
2021,04,18,09,43,17.50
2021,04,18,09,44,17.50
2021,04,18,09,45,17.50
2021,04,18,09,46,17.50
2021,04,18,09,47,17.50
2021,04,18,09,48,17.50
2021,04,18,09,49,17.50
2021,04,18,09,50,17.50
2021,04,18,09,51,17.40
2021,04,18,09,52,17.40
2021,04,18,09,53,17.30
2021,04,18,09,54,17.20
2021,04,18,09,55,17.10
2021,04,18,09,56,17.00
2021,04,18,09,57,16.90
2021,04,18,09,58,16.80
2021,04,18,09,59,16.70
2021,04,18,10,00,16.60
2021,04,18,10,01,16.60
2021,04,18,10,02,16.50
2021,04,18,10,03,16.50
2021,04,18,10,04,16.50
2021,04,18,10,05,16.50
2021,04,18,10,06,16.50
2021,04,18,10,07,16.40
2021,04,18,10,08,16.40
2021,04,18,10,09,16.40
2021,04,18,10,10,16.40
2021,04,18,10,11,16.40
2021,04,18,10,12,16.50
2021,04,18,10,13,16.50
2021,04,18,10,14,16.60
2021,04,18,10,15,16.60
2021,04,18,10,16,16.70
2021,04,18,10,17,16.70
2021,04,18,10,18,16.80
2021,04,18,10,19,16.90
2021,04,18,10,20,16.90
2021,04,18,10,21,16.90
2021,04,18,10,22,16.90
2021,04,18,10,23,17.00
2021,04,18,10,24,17.00
2021,04,18,10,25,17.10
2021,04,18,10,26,17.10
2021,04,18,10,27,17.20
2021,04,18,10,28,17.20
2021,04,18,10,29,17.30
2021,04,18,10,30,17.30
2021,04,18,10,31,17.30
2021,04,18,10,32,17.40
2021,04,18,10,33,17.40
2021,04,18,10,34,17.40
2021,04,18,10,35,17.40
2021,04,18,10,36,17.40
2021,04,18,10,37,17.40
2021,04,18,10,38,17.40
2021,04,18,10,39,17.40
2021,04,18,10,40,17.40
2021,04,18,10,41,17.40
2021,04,18,10,42,17.40
2021,04,18,10,43,17.40
2021,04,18,10,44,17.50
2021,04,18,10,45,17.50
2021,04,18,10,46,17.70
2021,04,18,10,47,17.80
2021,04,18,10,48,17.90
2021,04,18,10,49,18.00
2021,04,18,10,50,18.10
2021,04,18,10,51,18.20
2021,04,18,10,52,18.30
2021,04,18,10,53,18.40
2021,04,18,10,54,18.40
2021,04,18,10,55,18.40
2021,04,18,10,56,18.40
2021,04,18,10,57,18.40
2021,04,18,10,58,18.40
2021,04,18,10,59,18.40
2021,04,18,11,00,18.40
2021,04,18,11,01,18.40
2021,04,18,11,02,18.40
2021,04,18,11,03,18.40
2021,04,18,11,04,18.50
2021,04,18,11,05,18.60
2021,04,18,11,06,18.70
2021,04,18,11,07,18.80
2021,04,18,11,08,18.80
2021,04,18,11,09,18.90
2021,04,18,11,10,19.00
2021,04,18,11,11,19.00
2021,04,18,11,12,19.10
2021,04,18,11,13,19.10
2021,04,18,11,14,19.10
2021,04,18,11,15,19.10
2021,04,18,11,16,19.00
2021,04,18,11,17,19.00
2021,04,18,11,18,18.90
2021,04,18,11,19,18.90
2021,04,18,11,20,18.90
2021,04,18,11,21,18.90
2021,04,18,11,22,18.80
2021,04,18,11,23,18.70
2021,04,18,11,24,18.50
2021,04,18,11,25,18.40
2021,04,18,11,26,18.30
2021,04,18,11,27,18.30
2021,04,18,11,28,18.20
2021,04,18,11,29,18.20
2021,04,18,11,30,18.20
2021,04,18,11,31,18.20
2021,04,18,11,32,18.20
2021,04,18,11,33,18.10
2021,04,18,11,34,18.10
2021,04,18,11,35,18.10
2021,04,18,11,36,18.10
2021,04,18,11,37,18.20
2021,04,18,11,38,18.20
2021,04,18,11,39,18.20
2021,04,18,11,40,18.20
2021,04,18,11,41,18.10
2021,04,18,11,42,18.10
2021,04,18,11,43,18.10
2021,04,18,11,44,18.10
2021,04,18,11,45,18.10
2021,04,18,11,46,18.10
2021,04,18,11,47,18.10
2021,04,18,11,48,18.10
2021,04,18,11,49,18.20
2021,04,18,11,50,18.20
2021,04,18,11,51,18.30
2021,04,18,11,52,18.40
2021,04,18,11,53,18.50
2021,04,18,11,54,18.60
2021,04,18,11,55,18.70
2021,04,18,11,56,18.80
2021,04,18,11,57,18.80
2021,04,18,11,58,18.80
2021,04,18,11,59,18.80
2021,04,18,12,00,18.90
2021,04,18,12,01,19.00
2021,04,18,12,02,19.10
2021,04,18,12,03,19.20
2021,04,18,12,04,19.30
2021,04,18,12,05,19.40
2021,04,18,12,06,19.40
2021,04,18,12,07,19.40
2021,04,18,12,08,19.40
2021,04,18,12,09,19.50
2021,04,18,12,10,19.50
2021,04,18,12,11,19.60
2021,04,18,12,12,19.70
2021,04,18,12,13,19.80
2021,04,18,12,14,19.90
2021,04,18,12,15,19.90
2021,04,18,12,16,19.90
2021,04,18,12,17,19.90
2021,04,18,12,18,19.90
2021,04,18,12,19,20.00
2021,04,18,12,20,20.10
2021,04,18,12,21,20.20
2021,04,18,12,22,20.20
2021,04,18,12,23,20.10
2021,04,18,12,24,20.10
2021,04,18,12,25,20.10
2021,04,18,12,26,20.10
2021,04,18,12,27,20.10
2021,04,18,12,28,20.10
2021,04,18,12,29,20.00
2021,04,18,12,30,19.90
2021,04,18,12,31,19.90
2021,04,18,12,32,19.90
2021,04,18,12,33,19.80
2021,04,18,12,34,19.80
2021,04,18,12,35,19.90
2021,04,18,12,36,19.90
2021,04,18,12,37,19.90
2021,04,18,12,38,19.90
2021,04,18,12,39,19.90
2021,04,18,12,40,19.90
2021,04,18,12,41,20.00
2021,04,18,12,42,20.10
2021,04,18,12,43,20.10
2021,04,18,12,44,20.10
2021,04,18,12,45,20.20
2021,04,18,12,46,20.20
2021,04,18,12,47,20.30
2021,04,18,12,48,20.30
2021,04,18,12,49,20.30
2021,04,18,12,50,20.30
2021,04,18,12,51,20.30
2021,04,18,12,52,20.40
2021,04,18,12,53,20.40
2021,04,18,12,54,20.40
2021,04,18,12,55,20.40
2021,04,18,12,56,20.50
2021,04,18,12,57,20.50
2021,04,18,12,58,20.60
2021,04,18,12,59,20.70
2021,04,18,13,00,20.80
2021,04,18,13,01,20.90
2021,04,18,13,02,21.10
2021,04,18,13,03,21.20
2021,04,18,13,04,21.30
2021,04,18,13,05,21.30
2021,04,18,13,06,21.30
2021,04,18,13,07,21.20
2021,04,18,13,08,21.20
2021,04,18,13,09,21.10
2021,04,18,13,10,21.00
2021,04,18,13,11,20.90
2021,04,18,13,12,20.90
2021,04,18,13,13,20.90
2021,04,18,13,14,20.90
2021,04,18,13,15,21.00
2021,04,18,13,16,21.10
2021,04,18,13,17,21.20
2021,04,18,13,18,21.30
2021,04,18,13,19,21.30
2021,04,18,13,20,21.40
2021,04,18,13,21,21.50
2021,04,18,13,22,21.50
2021,04,18,13,23,21.60
2021,04,18,13,24,21.60
2021,04,18,13,25,21.50
2021,04,18,13,26,21.50
2021,04,18,13,27,21.40
2021,04,18,13,28,21.40
2021,04,18,13,29,21.30
2021,04,18,13,30,21.30
2021,04,18,13,31,21.30
2021,04,18,13,32,21.30
2021,04,18,13,33,21.30
2021,04,18,13,34,21.40
2021,04,18,13,35,21.40
2021,04,18,13,36,21.40
2021,04,18,13,37,21.50
2021,04,18,13,38,21.60
2021,04,18,13,39,21.60
2021,04,18,13,40,21.60
2021,04,18,13,41,21.60
2021,04,18,13,42,21.60
2021,04,18,13,43,21.50
2021,04,18,13,44,21.50
2021,04,18,13,45,21.30
2021,04,18,13,46,21.20
2021,04,18,13,47,21.20
2021,04,18,13,48,21.20
2021,04,18,13,49,21.30
2021,04,18,13,50,21.40
2021,04,18,13,51,21.50
2021,04,18,13,52,21.60
2021,04,18,13,53,21.70
2021,04,18,13,54,21.70
2021,04,18,13,55,21.70
2021,04,18,13,56,21.70
2021,04,18,13,57,21.70
2021,04,18,13,58,21.60
2021,04,18,13,59,21.50
2021,04,18,14,00,21.50
2021,04,18,14,01,21.50
2021,04,18,14,02,21.60
2021,04,18,14,03,21.70
2021,04,18,14,04,21.80
2021,04,18,14,05,21.90
2021,04,18,14,06,22.00
2021,04,18,14,07,22.10
2021,04,18,14,08,22.10
2021,04,18,14,09,22.00
2021,04,18,14,10,22.00
2021,04,18,14,11,21.90
2021,04,18,14,12,21.80
2021,04,18,14,13,21.80
2021,04,18,14,14,21.80
2021,04,18,14,15,21.90
2021,04,18,14,16,21.80
2021,04,18,14,17,21.90
2021,04,18,14,18,21.90
2021,04,18,14,19,22.00
2021,04,18,14,20,22.10
2021,04,18,14,21,22.10
2021,04,18,14,22,22.00
2021,04,18,14,23,22.00
2021,04,18,14,24,21.90
2021,04,18,14,25,21.90
2021,04,18,14,26,21.80
2021,04,18,14,27,21.70
2021,04,18,14,28,21.70
2021,04,18,14,29,21.60
2021,04,18,14,30,21.60
2021,04,18,14,31,21.60
2021,04,18,14,32,21.50
2021,04,18,14,33,21.50
2021,04,18,14,34,21.40
2021,04,18,14,35,21.30
2021,04,18,14,36,21.20
2021,04,18,14,37,21.10
2021,04,18,14,38,21.00
2021,04,18,14,39,20.90
2021,04,18,14,40,20.80
2021,04,18,14,41,20.80
2021,04,18,14,42,20.80
2021,04,18,14,43,20.80
2021,04,18,14,44,20.80
2021,04,18,14,45,20.70
2021,04,18,14,46,20.70
2021,04,18,14,47,20.70
2021,04,18,14,48,20.80
2021,04,18,14,49,20.80
2021,04,18,14,50,20.80
2021,04,18,14,51,20.90
2021,04,18,14,52,20.90
2021,04,18,14,53,21.00
2021,04,18,14,54,21.10
2021,04,18,14,55,21.10
2021,04,18,14,56,21.20
2021,04,18,14,57,21.20
2021,04,18,14,58,21.30
2021,04,18,14,59,21.40
2021,04,18,15,00,21.50
2021,04,18,15,01,21.60
2021,04,18,15,02,21.70
2021,04,18,15,03,21.80
2021,04,18,15,04,22.00
2021,04,18,15,05,22.10
2021,04,18,15,06,22.20
2021,04,18,15,07,22.30
2021,04,18,15,08,22.40
2021,04,18,15,09,22.50
2021,04,18,15,10,22.50
2021,04,18,15,11,22.70
2021,04,18,15,12,22.70
2021,04,18,15,13,22.80
2021,04,18,15,14,22.90
2021,04,18,15,15,22.90
2021,04,18,15,16,23.00
2021,04,18,15,17,23.10
2021,04,18,15,18,23.20
2021,04,18,15,19,23.20
2021,04,18,15,20,23.30
2021,04,18,15,21,23.50
2021,04,18,15,22,23.50
2021,04,18,15,23,23.60
2021,04,18,15,24,23.60
2021,04,18,15,25,23.70
2021,04,18,15,26,23.80
2021,04,18,15,27,23.80
2021,04,18,15,28,23.90
2021,04,18,15,29,23.90
2021,04,18,15,30,24.00
2021,04,18,15,31,24.00
2021,04,18,15,32,24.00
2021,04,18,15,33,24.00
2021,04,18,15,34,23.90
2021,04,18,15,35,23.80
2021,04,18,15,36,23.80
2021,04,18,15,37,23.80
2021,04,18,15,38,23.80
2021,04,18,15,39,23.90
2021,04,18,15,40,23.90
2021,04,18,15,41,24.00
2021,04,18,15,42,24.00
2021,04,18,15,43,24.10
2021,04,18,15,44,24.10
2021,04,18,15,45,24.10
2021,04,18,15,46,24.10
2021,04,18,15,47,24.10
2021,04,18,15,48,24.00
2021,04,18,15,49,24.00
2021,04,18,15,50,24.00
2021,04,18,15,51,23.90
2021,04,18,15,52,23.80
2021,04,18,15,53,23.80
2021,04,18,15,54,23.80
2021,04,18,15,55,23.80
2021,04,18,15,56,23.80
2021,04,18,15,57,23.80
2021,04,18,15,58,23.80
2021,04,18,15,59,23.90
2021,04,18,16,00,23.90
2021,04,18,16,01,24.00
2021,04,18,16,02,24.10
2021,04,18,16,03,24.10
2021,04,18,16,04,24.20
2021,04,18,16,05,24.10
2021,04,18,16,06,24.10
2021,04,18,16,07,24.10
2021,04,18,16,08,24.10
2021,04,18,16,09,24.10
2021,04,18,16,10,24.10
2021,04,18,16,11,24.10
2021,04,18,16,12,24.10
2021,04,18,16,13,24.10
2021,04,18,16,14,24.10
2021,04,18,16,15,24.10
2021,04,18,16,16,24.10
2021,04,18,16,17,24.20
2021,04,18,16,18,24.20
2021,04,18,16,19,24.20
2021,04,18,16,20,24.20
2021,04,18,16,21,24.30
2021,04,18,16,22,24.30
2021,04,18,16,23,24.30
2021,04,18,16,24,24.30
2021,04,18,16,25,24.30
2021,04,18,16,26,24.40
2021,04,18,16,27,24.40
2021,04,18,16,28,24.40
2021,04,18,16,29,24.50
2021,04,18,16,30,24.50
2021,04,18,16,31,24.60
2021,04,18,16,32,24.60
2021,04,18,16,33,24.50
2021,04,18,16,34,24.40
2021,04,18,16,35,24.40
2021,04,18,16,36,24.40
2021,04,18,16,37,24.40
2021,04,18,16,38,24.50
2021,04,18,16,39,24.60
2021,04,18,16,40,24.70
2021,04,18,16,41,24.80
2021,04,18,16,42,24.80
2021,04,18,16,43,24.80
2021,04,18,16,44,24.90
2021,04,18,16,45,24.90
2021,04,18,16,46,24.90
2021,04,18,16,47,24.90
2021,04,18,16,48,24.90
2021,04,18,16,49,24.90
2021,04,18,16,50,25.00
2021,04,18,16,51,25.00
2021,04,18,16,52,25.10
2021,04,18,16,53,25.10
2021,04,18,16,54,25.00
2021,04,18,16,55,24.90
2021,04,18,16,56,24.70
2021,04,18,16,57,24.50
2021,04,18,16,58,24.30
2021,04,18,16,59,24.20
2021,04,18,17,00,24.00
2021,04,18,17,01,23.60
2021,04,18,17,02,23.30
2021,04,18,17,03,23.10
2021,04,18,17,04,22.80
2021,04,18,17,05,22.70
2021,04,18,17,06,22.60
2021,04,18,17,07,22.50
2021,04,18,17,08,22.50
2021,04,18,17,09,22.50
2021,04,18,17,10,22.60
2021,04,18,17,11,22.70
2021,04,18,17,12,22.70
2021,04,18,17,13,22.80
2021,04,18,17,14,22.80
2021,04,18,17,15,22.90
2021,04,18,17,16,22.90
2021,04,18,17,17,22.90
2021,04,18,17,18,22.90
2021,04,18,17,19,22.90
2021,04,18,17,20,23.00
2021,04,18,17,21,23.10
2021,04,18,17,22,23.10
2021,04,18,17,23,23.20
2021,04,18,17,24,23.30
2021,04,18,17,25,23.40
2021,04,18,17,26,23.50